ORBCOMM FM34 [-]

Last updated on July 6, 2021, 3:36 p.m. UTC

1 25986U 99065G   21186.93716318  .00000025  00000-0  59930-4 0  9992
2 25986  45.0416  50.0008 0004095 357.0463   3.0359 14.32987934127832
UTC
Height (km)
Latitude
Longitude
Inclination
Orbital Period
UTC large
Height (km)
Speed (km/s)
/
Latitude / Longitude
Inclination (degrees)
Orbital Period (minutes)
Azimuth
Elevation
Range (km)
Doppler Factor
iOS Compass Heading
iOS Angle